Stündliche Wetter Holovachi

Heute, 15 Juni, Dienstag

Zeit Temperatur Niederschläge Wind Luftdruck Luftfeuchtigkeit
00:00 +17°C° 0 mm 2 m/S 747 mmHg 90%
01:00 +17°C° 0 mm 2 m/S 747 mmHg 91%
02:00 +17°C° 0 mm 2 m/S 747 mmHg 92%
03:00 +17°C° 0 mm 2 m/S 747 mmHg 92%
04:00 +17°C° 0 mm 2 m/S 747 mmHg 93%
05:00 +17°C° 0 mm 2 m/S 747 mmHg 93%
06:00 +19°C° 0 mm 2 m/S 747 mmHg 88%
07:00 +21°C° 0 mm 2 m/S 747 mmHg 84%
08:00 +22°C° 0 mm 3 m/S 747 mmHg 79%
09:00 +24°C° 0.3 mm 3 m/S 747 mmHg 75%
10:00 +25°C° 0.3 mm 3 m/S 747 mmHg 71%
11:00 +26°C° 0.3 mm 3 m/S 746 mmHg 66%
12:00 +26°C° 0.2 mm 3 m/S 746 mmHg 65%
13:00 +27°C° 0.2 mm 3 m/S 746 mmHg 64%
14:00 +27°C° 0.2 mm 3 m/S 746 mmHg 63%
15:00 +27°C° 0.3 mm 3 m/S 745 mmHg 67%
16:00 +26°C° 0.3 mm 3 m/S 745 mmHg 71%
17:00 +26°C° 0.3 mm 3 m/S 745 mmHg 76%
18:00 +24°C° 0.2 mm 2 m/S 745 mmHg 79%
19:00 +23°C° 0.2 mm 2 m/S 745 mmHg 82%
20:00 +20°C° 0.2 mm 2 m/S 745 mmHg 86%
21:00 +19°C° 0.4 mm 2 m/S 745 mmHg 88%
22:00 +19°C° 0.4 mm 2 m/S 745 mmHg 90%
23:00 +18°C° 0.4 mm 2 m/S 744 mmHg 91%

Morgen, 16 Juni, Mittwoch

Zeit Temperatur Niederschläge Wind Luftdruck Luftfeuchtigkeit
00:00 +18°C° 0.2 mm 2 m/S 744 mmHg 92%
01:00 +18°C° 0.2 mm 2 m/S 744 mmHg 93%
02:00 +17°C° 0.2 mm 2 m/S 744 mmHg 93%
03:00 +17°C° 0.4 mm 2 m/S 745 mmHg 93%
04:00 +17°C° 0.4 mm 2 m/S 745 mmHg 94%
05:00 +18°C° 0.4 mm 2 m/S 745 mmHg 94%
06:00 +19°C° 0 mm 2 m/S 745 mmHg 89%
07:00 +21°C° 0 mm 2 m/S 746 mmHg 85%
08:00 +23°C° 0 mm 2 m/S 746 mmHg 80%
09:00 +24°C° 0 mm 3 m/S 746 mmHg 76%
10:00 +25°C° 0 mm 3 m/S 746 mmHg 71%
11:00 +27°C° 0 mm 4 m/S 746 mmHg 67%
12:00 +27°C° 0.6 mm 3 m/S 746 mmHg 67%
13:00 +27°C° 0.6 mm 3 m/S 746 mmHg 67%
14:00 +27°C° 0.6 mm 3 m/S 746 mmHg 67%
15:00 +26°C° 0.5 mm 3 m/S 746 mmHg 71%
16:00 +26°C° 0.5 mm 4 m/S 747 mmHg 75%
17:00 +25°C° 0.5 mm 4 m/S 747 mmHg 79%
18:00 +23°C° 0.7 mm 4 m/S 747 mmHg 83%
19:00 +22°C° 0.7 mm 3 m/S 747 mmHg 87%
20:00 +20°C° 0.7 mm 3 m/S 748 mmHg 90%
21:00 +20°C° 0 mm 3 m/S 748 mmHg 92%
22:00 +19°C° 0 mm 3 m/S 748 mmHg 93%
23:00 +18°C° 0 mm 3 m/S 748 mmHg 94%

übermorgen, 17 Juni, Donnerstag

Zeit Temperatur Niederschläge Wind Luftdruck Luftfeuchtigkeit
00:00 +18°C° 0 mm 3 m/S 749 mmHg 95%
01:00 +18°C° 0 mm 4 m/S 749 mmHg 95%
02:00 +17°C° 0 mm 4 m/S 749 mmHg 95%
03:00 +17°C° 0 mm 4 m/S 749 mmHg 95%
04:00 +17°C° 0 mm 4 m/S 750 mmHg 94%
05:00 +17°C° 0 mm 4 m/S 750 mmHg 93%
06:00 +19°C° 0 mm 5 m/S 750 mmHg 89%
07:00 +20°C° 0 mm 6 m/S 751 mmHg 84%
08:00 +21°C° 0 mm 6 m/S 751 mmHg 79%
09:00 +22°C° 0 mm 6 m/S 751 mmHg 75%
10:00 +23°C° 0 mm 6 m/S 751 mmHg 70%
11:00 +24°C° 0 mm 6 m/S 752 mmHg 66%
12:00 +24°C° 0 mm 6 m/S 752 mmHg 65%
13:00 +24°C° 0 mm 6 m/S 752 mmHg 64%
14:00 +24°C° 0 mm 6 m/S 752 mmHg 64%
15:00 +23°C° 0 mm 6 m/S 752 mmHg 66%
16:00 +23°C° 0 mm 6 m/S 752 mmHg 68%
17:00 +22°C° 0 mm 6 m/S 753 mmHg 70%
18:00 +21°C° 0 mm 5 m/S 753 mmHg 75%
19:00 +19°C° 0 mm 4 m/S 753 mmHg 80%
20:00 +18°C° 0 mm 4 m/S 754 mmHg 85%
21:00 +17°C° 0 mm 4 m/S 754 mmHg 85%
22:00 +15°C° 0 mm 4 m/S 754 mmHg 86%
23:00 +15°C° 0 mm 4 m/S 754 mmHg 86%

18 Juni, Freitag

Zeit Temperatur Niederschläge Wind Luftdruck Luftfeuchtigkeit
00:00 +14°C° 0 mm 4 m/S 754 mmHg 88%
01:00 +14°C° 0 mm 4 m/S 754 mmHg 90%
02:00 +13°C° 0 mm 3 m/S 754 mmHg 92%
03:00 +13°C° 0 mm 4 m/S 755 mmHg 90%
04:00 +13°C° 0 mm 4 m/S 755 mmHg 88%
05:00 +13°C° 0 mm 4 m/S 755 mmHg 86%
06:00 +15°C° 0 mm 4 m/S 755 mmHg 80%
07:00 +17°C° 0 mm 5 m/S 755 mmHg 74%
08:00 +20°C° 0 mm 5 m/S 756 mmHg 69%
09:00 +21°C° 0 mm 5 m/S 756 mmHg 65%
10:00 +22°C° 0 mm 6 m/S 756 mmHg 62%
11:00 +23°C° 0 mm 6 m/S 756 mmHg 59%
12:00 +23°C° 0 mm 6 m/S 756 mmHg 58%
13:00 +23°C° 0 mm 5 m/S 756 mmHg 58%
14:00 +23°C° 0 mm 5 m/S 756 mmHg 58%
15:00 +23°C° 0 mm 5 m/S 756 mmHg 62%
16:00 +23°C° 0 mm 5 m/S 756 mmHg 66%
17:00 +23°C° 0 mm 4 m/S 755 mmHg 69%
18:00 +21°C° 0 mm 4 m/S 755 mmHg 75%
19:00 +19°C° 0 mm 3 m/S 756 mmHg 81%
20:00 +18°C° 0 mm 3 m/S 756 mmHg 87%
21:00 +17°C° 0 mm 3 m/S 756 mmHg 88%
22:00 +16°C° 0 mm 3 m/S 756 mmHg 89%
23:00 +16°C° 0 mm 3 m/S 756 mmHg 90%

19 Juni, Samstag

Zeit Temperatur Niederschläge Wind Luftdruck Luftfeuchtigkeit
00:00 +14°C° 0 mm 3 m/S 756 mmHg 91%
01:00 +14°C° 0 mm 3 m/S 756 mmHg 91%
02:00 +13°C° 0 mm 3 m/S 756 mmHg 91%
03:00 +14°C° 0 mm 3 m/S 757 mmHg 90%
04:00 +14°C° 0 mm 3 m/S 757 mmHg 89%
05:00 +14°C° 0 mm 3 m/S 757 mmHg 88%
06:00 +17°C° 0 mm 3 m/S 757 mmHg 82%
07:00 +19°C° 0 mm 4 m/S 757 mmHg 77%
08:00 +20°C° 0 mm 4 m/S 757 mmHg 71%
09:00 +22°C° 0 mm 4 m/S 757 mmHg 68%
10:00 +23°C° 0 mm 4 m/S 757 mmHg 65%
11:00 +25°C° 0 mm 4 m/S 757 mmHg 61%
12:00 +25°C° 0 mm 4 m/S 756 mmHg 60%
13:00 +26°C° 0 mm 4 m/S 756 mmHg 59%
14:00 +26°C° 0 mm 4 m/S 756 mmHg 57%
15:00 +26°C° 0 mm 4 m/S 756 mmHg 60%
16:00 +25°C° 0 mm 3 m/S 755 mmHg 64%
17:00 +25°C° 0 mm 3 m/S 755 mmHg 67%
18:00 +22°C° 0 mm 3 m/S 755 mmHg 72%
19:00 +21°C° 0 mm 3 m/S 755 mmHg 77%
20:00 +19°C° 0 mm 3 m/S 755 mmHg 82%
21:00 +18°C° 0 mm 3 m/S 755 mmHg 85%
22:00 +17°C° 0 mm 3 m/S 755 mmHg 88%
23:00 +16°C° 0 mm 3 m/S 755 mmHg 91%

20 Juni, Sonntag

Zeit Temperatur Niederschläge Wind Luftdruck Luftfeuchtigkeit
00:00 +16°C° 0 mm 3 m/S 755 mmHg 91%
01:00 +14°C° 0 mm 3 m/S 755 mmHg 92%
02:00 +14°C° 0 mm 3 m/S 755 mmHg 92%
03:00 +15°C° 0 mm 2 m/S 755 mmHg 91%
04:00 +15°C° 0 mm 2 m/S 755 mmHg 90%
05:00 +16°C° 0 mm 2 m/S 755 mmHg 89%
06:00 +18°C° 0 mm 3 m/S 755 mmHg 83%
07:00 +19°C° 0 mm 3 m/S 755 mmHg 77%
08:00 +21°C° 0 mm 3 m/S 755 mmHg 71%
09:00 +22°C° 0 mm 4 m/S 755 mmHg 67%
10:00 +23°C° 0 mm 4 m/S 755 mmHg 63%
11:00 +26°C° 0 mm 4 m/S 755 mmHg 59%
12:00 +26°C° 0 mm 4 m/S 754 mmHg 58%
13:00 +26°C° 0 mm 4 m/S 754 mmHg 57%
14:00 +27°C° 0 mm 4 m/S 754 mmHg 56%
15:00 +27°C° 0 mm 3 m/S 754 mmHg 60%
16:00 +26°C° 0 mm 3 m/S 753 mmHg 64%
17:00 +26°C° 0 mm 3 m/S 753 mmHg 67%
18:00 +24°C° 0 mm 3 m/S 753 mmHg 73%
19:00 +23°C° 0 mm 2 m/S 753 mmHg 79%
20:00 +20°C° 0 mm 2 m/S 753 mmHg 85%
21:00 +19°C° 0 mm 2 m/S 753 mmHg 87%
22:00 +19°C° 0 mm 2 m/S 753 mmHg 89%
23:00 +18°C° 0 mm 2 m/S 753 mmHg 90%
Mehr zeigen

Wir brauchen deine Erlaubnis

Meteoprog und unser Service Anbieter werden persönliche Daten aufbewahren, so wie Cookies, Geräte Bezeichnung oder ähnliche Technologien von deinem Gerät und Prozess, so wie Persönliche Daten Inhalte und Werbungen, genauso wie social Media und den Verkehr zu analysieren.

  • Aufbewahrung und/oder Zugang zu deiner Geräte Informationen.

    Cookies, Geräte Bezeichnung oder andere Informationen, können aufbewahrt oder Zugang zu deinem Gerät erhalten, für den Grund, der oben angegeben wird.

  • Personalisierte Werbung und Inhalte, Messungen, Einblick in das Publikum und Produkt Entwicklung.

    Werbungen und Inhalte können personalisiert werden, basierend auf ein Profil. Mehr Daten können besser personalisierte Werbungen und Inhalte hinzufügen. Werbung und Inhalte können gezeigt und gemessen werden. Einblicke über das Publikum, welche die Werbung gesehen haben und den Inhalt, können abgeleitet werden. So wie Daten können genutzt werden, um es zu verbessern oder die Benutzer Erfahrung zu verbessern das System und die Software.

Wenn du “Ich stimme zu” klickst, erlaubst du uns, die Cookies zu benutzen die Geräte Bezeichnung, den Web oder ähnliche Technologien zu benutzen. Deine Settings, können in deinem Gerät bei deinem Browser geändert werden.

Für den bestimmten Zweck, berechtigten Interessen beruhen darauf, mehr als auf den Inhalt. Du kannst mehr darüber in unseren Privaten und Cookie Politik lesen.